{"data":{"norad_id":60312,"epoch":"2026-05-25T02:50:46.176000Z","epoch_age_seconds":54941,"freshness":"FRESH","line1":"1 60312U 24133M   26145.11859000  .00001764  00000+0  19423-4 0  9997","line2":"2 60312  53.1587 129.7783 0000761  67.8917 292.2181 15.69688468105734","mean_motion":15.69688468,"eccentricity":7.61e-5,"inclination_deg":53.1587,"raan_deg":129.7783,"arg_perigee_deg":67.8917,"mean_anomaly_deg":292.2181,"bstar":1.9423e-5,"rev_number":10573,"period_min":91.737948602933,"perigee_km":359.27561134565,"apogee_km":360.30112358658,"semimajor_km":6737.9253674661,"source":"CELESTRAK","updated_at":"2026-05-25T13:38:19.230143Z"}}